Location: Newark
(25.0000°N, 73.5000°E)
Time: 19:54:44
(UTC+00:00)

SR - Visible Passes

Search period start: 28 February 2021 00:00
Search period end: 10 March 2021 00:00
Orbit: 573 x 882 km, 66.7° (Epoch: 28 February)

Date Brightness Start Highest point End Pass type
(mag) Time Alt. Az. Time Alt. Az. Time Alt. Az.
28 Feb ? 00:33:38 10° NNW 00:39:32 70° ENE 00:45:08 10° SSE visible
28 Feb ? 14:55:29 10° WSW 14:59:46 30° WNW 15:04:25 10° N visible
28 Feb ? 23:44:22 10° N 23:49:38 33° ENE 23:54:42 10° SE visible
01 Mar ? 14:05:06 10° SSW 14:09:53 72° WNW 14:15:10 10° NNE visible
01 Mar ? 22:56:01 10° NNE 22:59:32 16° NE 23:02:58 10° E visible
02 Mar ? 00:36:12 10° NNW 00:41:59 58° WSW 00:47:26 10° S visible
02 Mar ? 14:59:41 10° W 15:02:35 15° NW 15:05:36 10° NNW visible
02 Mar ? 23:46:24 10° NNW 23:52:17 65° ENE 23:57:49 10° SSE visible
03 Mar ? 14:08:03 10° SW 14:12:28 33° WNW 14:17:15 10° N visible
03 Mar ? 22:57:53 13° N 23:02:20 30° ENE 23:07:17 10° ESE visible
04 Mar ? 00:39:24 10° NW 00:44:16 28° WSW 00:48:55 10° SSW visible
04 Mar ? 22:11:54 15° NE 22:12:13 15° NE 22:15:21 10° E visible
04 Mar ? 23:51:28 26° NW 23:54:43 63° WSW 00:00:12 10° S visible
05 Mar ? 14:12:04 10° W 14:15:15 17° NW 14:18:35 10° NNW visible
05 Mar ? 23:05:33 57° E 23:05:33 57° E 23:10:30 10° SE visible
06 Mar ? 00:45:07 12° W 00:46:25 13° WSW 00:48:51 10° SW visible
06 Mar ? 22:19:29 12° ESE 22:19:29 12° ESE 22:19:51 10° ESE visible
06 Mar ? 23:59:03 24° SW 23:59:03 24° SW 00:01:47 10° SSW visible
07 Mar ? 23:12:47 11° SSE 23:12:47 11° SSE 23:12:57 10° SSE visible
